Flag for United Kingdom Weather past 2 weeks in Sheffield, England, United Kingdom

Now
54 °F

Passing clouds.


Feels Like: 49 °F
Forecast: 50 / 55 °F
Wind: 17 mph from Southwest

Location: Manchester Airport

Current Time: Dec 18, 2014 at 7:53:35 AM

Latest Report: Dec 18, 2014 at 7:20 AM


Visibility: N/A

Pressure: 29.62 "Hg

Humidity: 88%

Dew point: 50 °F

Location of SheffieldLocation

Historic Weather in Sheffield — Graph

°F

Sheffield temperature yesterday

Maximum temperature yesterday: 52 °F (at 5:50 AM)
Minimum temperature yesterday: 45 °F (at 12:20 AM)
Average temperature yesterday: 50 °F

Past Weeks' High & Low Weather Summary

 TemperatureHumidityPressure
High54 °F (Dec 18, 2:20 AM)100% (Dec 3, 6:20 AM)30.36 "Hg (Dec 3, 6:20 AM)
Low27 °F (Dec 3, 6:20 AM)66% (Dec 10, 11:20 AM)29.15 "Hg (Dec 12, 3:50 AM)
Average40 °F91%29.88 "Hg
* Reported Dec 3 6:20 AM — Dec 18 6:50 AM, Sheffield, Weather by CustomWeather, © 2014

Note: Actual official high and low records may vary slightly from our data, if they occured in-between our weather recording intervals... More about our weather records

Advertising

Sheffield weather history for previous 24 hours

 ConditionsComfort  
Time TempWeatherWind HumidityBarometerVisibility
6:50 AM
Dec 18
54 °FPassing clouds.20 mph88%29.62 "HgN/A
6:20 AM54 °FPassing clouds.16 mph88%29.62 "HgN/A
5:50 AM54 °FPassing clouds.18 mph88%29.62 "HgN/A
5:20 AM54 °FPassing clouds.16 mph88%29.62 "HgN/A
4:50 AM54 °FMostly cloudy.15 mph88%29.65 "HgN/A
4:20 AM54 °FPassing clouds.14 mph88%29.62 "HgN/A
3:20 AM52 °FMostly cloudy.10 mph94%29.65 "HgN/A
2:50 AM54 °FPassing clouds.13 mph88%29.65 "HgN/A
2:20 AM54 °FPassing clouds.12 mph88%29.68 "HgN/A
1:50 AM52 °FPassing clouds.13 mph94%29.65 "HgN/A
1:20 AM52 °FPassing clouds.12 mph94%29.65 "HgN/A
12:50 AM52 °FPassing clouds.10 mph94%29.68 "HgN/A
12:20 AM52 °FPassing clouds.10 mph94%29.65 "HgN/A
11:50 PM
Dec 17
52 °FMostly cloudy.10 mph94%29.65 "HgN/A
11:20 PM50 °FMostly cloudy.9 mph100%29.68 "HgN/A
10:50 PM50 °FMostly cloudy.7 mph100%29.68 "HgN/A
10:20 PM50 °FMostly cloudy.7 mph100%29.68 "HgN/A
9:50 PM50 °FMostly cloudy.8 mph100%29.68 "HgN/A
9:20 PM50 °FFog.8 mph100%29.68 "Hg3 mi
8:50 PM50 °FLight rain. Partly cloudy.7 mph100%29.68 "Hg2 mi
8:20 PM50 °FRain. Passing clouds.9 mph100%29.68 "Hg2 mi
7:50 PM50 °FPartly cloudy.8 mph100%29.68 "Hg2 mi
7:20 PM50 °FPassing clouds.9 mph100%29.68 "Hg2 mi
6:50 PM50 °FLight rain. Passing clouds.10 mph100%29.68 "Hg1 mi
6:20 PM50 °FLight rain. Passing clouds.9 mph100%29.65 "Hg1 mi
5:50 PM50 °FPassing clouds.8 mph100%29.65 "Hg2 mi
5:20 PM50 °FPassing clouds.10 mph100%29.65 "Hg2 mi
4:50 PM50 °FPartly cloudy.7 mph100%29.65 "Hg2 mi
4:20 PM50 °FPartly cloudy.7 mph100%29.65 "Hg2 mi
3:50 PM50 °FLight rain. Partly cloudy.6 mph100%29.65 "Hg2 mi
3:20 PM52 °FPartly sunny.8 mph94%29.65 "HgN/A
2:50 PM52 °FRain. Broken clouds.12 mph94%29.65 "Hg4 mi
2:20 PM52 °FDrizzle. Partly sunny.10 mph94%29.65 "Hg5 mi
1:50 PM52 °FScattered showers. Partly sunny.15 mph94%29.65 "HgN/A
1:20 PM52 °FDrizzle. Broken clouds.14 mph94%29.65 "HgN/A
12:50 PM52 °FDrizzle. Partly sunny.14 mph94%29.65 "Hg1 mi
12:20 PM50 °FDrizzle. Partly sunny.12 mph100%29.65 "Hg4 mi
11:50 AM52 °FDrizzle. Partly sunny.15 mph94%29.65 "Hg4 mi
11:20 AM52 °FDrizzle. Partly sunny.16 mph94%29.65 "Hg3 mi
10:50 AM52 °FDrizzle. Partly sunny.17 mph94%29.65 "Hg4 mi
10:20 AM52 °FDrizzle. Partly sunny.17 mph94%29.65 "Hg5 mi
9:50 AM52 °FDrizzle. Partly sunny.18 mph88%29.62 "Hg6 mi
9:20 AM52 °FPartly sunny.20 mph88%29.62 "HgN/A
8:50 AM52 °FPartly sunny.15 mph88%29.59 "HgN/A
8:20 AM52 °FPartly sunny.17 mph88%29.56 "HgN/A
7:50 AM52 °FPassing clouds.16 mph88%29.59 "HgN/A
7:20 AM52 °FPassing clouds.14 mph88%29.59 "HgN/A
Weather by CustomWeather, © 2014

See weather overviewHow to use our weather pages